SM6KNE Weather Reports


Display with metric or nautical units.
time (UTC)temp
F
wind
direction
speed
MPH
gust
MPH
rain 1hr
in
rain 24hr
in
rain mn
in
humidity
%
barometer
mb
20260508153519 76 290 6.0 8.0 0.00 0.00 0.00 26 1023.1
20260508152517 75 268 7.0 10.0 0.00 0.00 0.00 25 1023.1
20260508151544 75 286 7.0 10.0 0.00 0.00 0.00 26 1023.1
20260508150524 77 283 8.0 11.0 0.00 0.00 0.00 25 1023.1
20260508145523 76 272 8.0 11.0 0.00 0.00 0.00 26 1023.1
20260508144526 75 274 8.0 10.0 0.00 0.00 0.00 27 1023.1
20260508143524 73 285 10.0 13.0 0.00 0.00 0.00 27 1023.1
20260508142544 76 271 8.0 10.0 0.00 0.00 0.00 27 1023.1
20260508141525 77 282 9.0 11.0 0.00 0.00 0.00 27 1023.1
20260508140524 73 281 8.0 11.0 0.00 0.00 0.00 28 1023.1
20260508135524 71 266 7.0 10.0 0.00 0.00 0.00 28 1023.1
20260508134543 74 260 8.0 10.0 0.00 0.00 0.00 27 1023.1
20260508133523 75 264 9.0 13.0 0.00 0.00 0.00 27 1023.1
20260508132523 69 265 9.0 11.0 0.00 0.00 0.00 28 1023.1
20260508131521 70 258 11.0 13.0 0.00 0.00 0.00 28 1023.1
20260508130517 70 258 12.0 14.0 0.00 0.00 0.00 27 1023.1
20260508125523 71 253 12.0 17.0 0.00 0.00 0.00 26 1023.1
20260508124523 75 266 12.0 16.0 0.00 0.00 0.00 25 1023.1
20260508123515 75 248 12.0 14.0 0.00 0.00 0.00 24 1023.1
20260508122524 72 244 5.0 6.0 0.00 0.00 0.00 24 1023.1
20260508121520 72 0.0 0.0 0.00 0.00 0.00 24 1023.1
20260508120523 73 58 1.0 2.0 0.00 0.00 0.00 24 1023.1
20260508115604 74 293 1.0 2.0 0.00 0.00 0.00 24 1023.1
20260508114523 74 0.0 0.0 0.00 0.00 0.00 24 1023.1
20260508113544 77 0.0 0.0 0.00 0.00 0.00 24 1023.1
20260508112523 75 0.0 0.0 0.00 0.00 0.00 24 1023.1
20260508111523 79 68 1.0 2.0 0.00 0.00 0.00 22 1023.1
20260508110523 78 0.0 0.0 0.00 0.00 0.00 24 1023.1
20260508105524 78 0.0 0.0 0.00 0.00 0.00 24 1023.1
20260508104523 77 293 1.0 3.0 0.00 0.00 0.00 26 1023.1
20260508103523 76 264 1.0 3.0 0.00 0.00 0.00 26 1024.1
20260508102523 75 0.0 0.0 0.00 0.00 0.00 27 1024.1
20260508101524 74 270 0.0 2.0 0.00 0.00 0.00 28 1023.1
20260508100522 72 293 0.0 2.0 0.00 0.00 0.00 29 1023.1
20260508095541 71 0.0 0.0 0.00 0.00 0.00 29 1023.1
20260508094518 69 0.0 0.0 0.00 0.00 0.00 30 1023.1
20260508093517 68 0.0 0.0 0.00 0.00 0.00 30 1024.1
20260508092524 67 0.0 0.0 0.00 0.00 0.00 31 1024.0
20260508091544 65 0.0 0.0 0.00 0.00 0.00 32 1023.1
20260508090524 64 259 0.0 3.0 0.00 0.00 0.00 33 1024.1
20260508085518 63 0.0 0.0 0.00 0.00 0.00 35 1024.0
20260508084523 62 0.0 0.0 0.00 0.00 0.00 36 1023.1
20260508083523 60 0.0 0.0 0.00 0.00 0.00 37 1023.1
20260508082544 59 0.0 0.0 0.00 0.00 0.00 40 1023.3
20260508081523 58 0.0 0.0 0.00 0.00 0.00 42 1024.1
20260508074544 54 0.0 0.0 0.00 0.00 0.00 47 1024.1
20260508073522 52 0.0 0.0 0.00 0.00 0.00 48 1024.1
20260508072520 51 0.0 0.0 0.00 0.00 0.00 50 1024.0
20260508071517 48 0.0 0.0 0.00 0.00 0.00 52 1023.1
20260508070515 47 0.0 0.0 0.00 0.00 0.00 53 1023.1
20260508065524 45 0.0 0.0 0.00 0.00 0.00 54 1023.1
20260508064524 43 0.0 0.0 0.00 0.00 0.00 56 1023.1
20260508063544 42 0.0 0.0 0.00 0.00 0.00 58 1023.1
20260508062523 40 0.0 0.0 0.00 0.00 0.00 59 1023.1
20260508061543 39 0.0 0.0 0.00 0.00 0.00 60 1023.1
20260508060524 38 0.0 0.0 0.00 0.00 0.00 61 1023.1
20260508055526 37 0.0 0.0 0.00 0.00 0.00 61 1023.1
20260508054523 36 0.0 0.0 0.00 0.00 0.00 62 1023.1
20260508053523 35 0.0 0.0 0.00 0.00 0.00 62 1023.1
20260508052524 35 0.0 0.0 0.00 0.00 0.00 62 1023.1
20260508051600 34 0.0 0.0 0.00 0.00 0.00 62 1023.1
20260508050526 33 0.0 0.0 0.00 0.00 0.00 61 1023.1
20260508045544 32 0.0 0.0 0.00 0.00 0.00 61 1023.1
20260508044519 32 0.0 0.0 0.00 0.00 0.00 60 1023.1
20260508043524 32 0.0 0.0 0.00 0.00 0.00 60 1023.1
20260508042524 32 0.0 0.0 0.00 0.00 0.00 60 1023.1
20260508041523 31 0.0 0.0 0.00 0.00 0.00 60 1023.1
20260508040520 31 0.0 0.0 0.00 0.00 0.00 60 1023.1
20260508035519 31 0.0 0.0 0.00 0.00 0.00 59 1023.1
20260508034523 31 0.0 0.0 0.00 0.00 0.00 58 1023.1
20260508033523 31 0.0 0.0 0.00 0.00 0.00 58 1022.1
20260508032544 31 0.0 0.0 0.00 0.00 0.00 57 1022.1
20260508031523 31 0.0 0.0 0.00 0.00 0.00 57 1022.1
20260508030523 31 0.0 0.0 0.00 0.00 0.00 56 1022.1
20260508025523 31 0.0 0.0 0.00 0.00 0.00 55 1022.1
20260508024524 31 0.0 0.0 0.00 0.00 0.00 55 1022.1
20260508023544 32 0.0 0.0 0.00 0.00 0.00 55 1022.1
20260508022523 32 0.0 0.0 0.00 0.00 0.00 54 1022.1
20260508021524 32 0.0 0.0 0.00 0.00 0.00 53 1022.1
20260508020523 32 0.0 0.0 0.00 0.00 0.00 53 1022.1
20260508015523 32 0.0 0.0 0.00 0.00 0.00 52 1022.1
20260508014521 32 0.0 0.0 0.00 0.00 0.00 53 1022.1
20260508013523 32 0.0 0.0 0.00 0.00 0.00 53 1022.1
20260508012537 33 0.0 0.0 0.00 0.00 0.00 53 1022.1
20260508011543 33 0.0 0.0 0.00 0.00 0.00 52 1022.1
20260508010521 33 0.0 0.0 0.00 0.00 0.00 51 1022.1
20260508005523 34 0.0 0.0 0.00 0.00 0.00 51 1022.1
20260508004523 34 0.0 0.0 0.00 0.00 0.00 52 1022.1
20260508003519 34 0.0 0.0 0.00 0.00 0.00 51 1021.1
20260508002525 34 0.0 0.0 0.00 0.00 0.00 51 1021.1
20260508001523 34 0.0 0.0 0.00 0.00 0.00 50 1021.1
20260508000518 35 0.0 0.0 0.00 0.00 0.00 49 1021.1
20260507235524 35 0.0 0.0 0.00 0.00 0.00 49 1021.1
20260507234524 35 0.0 0.0 0.00 0.00 0.00 49 1021.1
20260507233601 36 0.0 0.0 0.00 0.00 0.00 48 1021.1
20260507232544 36 0.0 0.0 0.00 0.00 0.00 47 1021.1
20260507231524 37 0.0 0.0 0.00 0.00 0.00 45 1021.1
20260507230544 37 0.0 0.0 0.00 0.00 0.00 44 1021.1
20260507225524 37 0.0 0.0 0.00 0.00 0.00 45 1021.1
20260507224523 37 0.0 0.0 0.00 0.00 0.00 43 1021.1
20260507223523 38 0.0 0.0 0.00 0.00 0.00 41 1021.1
20260507222522 39 0.0 0.0 0.00 0.00 0.00 41 1021.1
20260507221521 39 0.0 0.0 0.00 0.00 0.00 41 1021.1
20260507220544 39 0.0 0.0 0.00 0.00 0.00 40 1020.1
20260507215523 40 0.0 0.0 0.00 0.00 0.00 38 1020.3
20260507214524 41 0.0 0.0 0.00 0.00 0.00 37 1021.1
20260507213524 41 0.0 0.0 0.00 0.00 0.00 37 1020.1
20260507212523 41 0.0 0.0 0.00 0.00 0.00 36 1020.1
20260507211524 42 0.0 0.0 0.00 0.00 0.00 35 1020.1
20260507210527 43 0.0 0.0 0.00 0.00 0.00 34 1020.1
20260507205524 43 0.0 0.0 0.00 0.00 0.00 33 1020.1
20260507204603 44 0.0 0.0 0.00 0.00 0.00 32 1020.1
20260507203524 45 0.0 0.0 0.00 0.00 0.00 31 1020.1
20260507202525 46 0.0 0.0 0.00 0.00 0.00 30 1020.1
20260507201543 47 0.0 0.0 0.00 0.00 0.00 29 1020.1
20260507200522 48 0.0 0.0 0.00 0.00 0.00 28 1020.1
20260507195524 48 0.0 0.0 0.00 0.00 0.00 28 1019.9
20260507194518 49 0.0 0.0 0.00 0.00 0.00 27 1019.1
20260507193521 50 0.0 0.0 0.00 0.00 0.00 26 1019.1
20260507192523 52 0.0 0.0 0.00 0.00 0.00 23 1019.1
20260507191524 53 0.0 0.0 0.00 0.00 0.00 22 1019.1
20260507190523 54 293 0.0 2.0 0.00 0.00 0.00 21 1019.1
20260507185544 55 293 0.0 1.0 0.00 0.00 0.00 21 1019.1
20260507184523 56 293 0.0 1.0 0.00 0.00 0.00 20 1019.1
20260507183523 57 0.0 0.0 0.00 0.00 0.00 21 1019.1
20260507182524 57 293 0.0 1.0 0.00 0.00 0.00 20 1019.1
20260507181607 58 280 2.0 5.0 0.00 0.00 0.00 20 1019.1
20260507180523 59 293 4.0 7.0 0.00 0.00 0.00 20 1018.1
20260507175524 59 270 6.0 6.0 0.00 0.00 0.00 20 1018.1
20260507174525 59 275 7.0 8.0 0.00 0.00 0.00 19 1018.1
20260507173523 61 293 7.0 9.0 0.00 0.00 0.00 19 1018.1
20260507172523 62 267 8.0 10.0 0.00 0.00 0.00 19 1018.1
20260507171523 65 279 6.0 7.0 0.00 0.00 0.00 19 1018.1
20260507170523 65 280 6.0 8.0 0.00 0.00 0.00 19 1018.1
20260507165524 66 288 8.0 10.0 0.00 0.00 0.00 18 1018.1
20260507164523 68 259 9.0 11.0 0.00 0.00 0.00 18 1018.1
20260507163542 70 308 4.0 6.0 0.00 0.00 0.00 19 1018.1
20260507162526 70 290 6.0 9.0 0.00 0.00 0.00 18 1018.1
20260507161525 70 259 7.0 10.0 0.00 0.00 0.00 18 1018.1
20260507160546 71 292 8.0 10.0 0.00 0.00 0.00 17 1018.1
20260507155523 72 288 6.0 8.0 0.00 0.00 0.00 17 1018.1
20260507154520 74 285 5.0 8.0 0.00 0.00 0.00 17 1018.1